Location: Newark
(16.3678°N, 77.8722°E)
Time: 19:54:17
(UTC+00:00)

Vanguard 1 - Visible Passes

Search period start: 05 December 2019 00:00
Search period end: 15 December 2019 00:00
Orbit: 652 x 3831 km, 34.2° (Epoch: 05 December)

Date Brightness Start Highest point End Pass type
(mag) Time Alt. Az. Time Alt. Az. Time Alt. Az.
05 Dec 13.8 18:44:13 10° S 18:59:39 22° SE 19:12:51 10° E visible
05 Dec 13.0 21:12:43 39° SSW 21:23:29 63° SE 21:45:05 10° ENE visible
05 Dec 12.7 23:27:31 10° WSW 23:51:16 69° NNW 00:09:14 10° NE visible
06 Dec 13.6 19:22:36 29° ESE 19:22:36 29° ESE 19:37:24 10° E visible
06 Dec 12.8 21:35:33 48° SW 21:45:03 76° SE 22:06:49 10° ENE visible
06 Dec 12.8 23:49:56 10° WSW 00:13:18 60° NNW 00:30:30 10° NE visible
07 Dec 13.4 19:44:40 38° ESE 19:44:40 38° ESE 20:00:48 10° ENE visible
07 Dec 12.7 21:57:34 51° SW 22:06:44 89° SE 22:28:22 10° ENE visible
08 Dec 12.9 00:12:43 10° W 00:35:31 52° NNW 00:51:50 10° NE visible
08 Dec13.917:53:22E17:53:22E17:25:58Svisible
08 Dec 13.2 20:06:14 47° ESE 20:06:14 47° ESE 20:23:28 10° ENE visible
08 Dec 12.7 22:19:05 49° WSW 22:28:35 79° NNW 22:49:49 10° NE visible
09 Dec 12.9 00:35:47 10° W 00:57:54 47° NNW 01:13:16 10° NE visible
09 Dec13.918:14:35E18:14:35E17:44:41Svisible
09 Dec 13.0 20:27:24 57° E 20:27:24 57° E 20:45:39 10° ENE visible
09 Dec 12.8 22:40:13 44° W 22:50:36 69° NNW 23:11:14 10° NE visible
10 Dec 13.9 18:35:28 12° E 18:35:28 12° E 18:36:41 10° E visible
10 Dec 12.8 20:48:17 67° E 20:48:17 67° E 21:07:32 10° ENE visible
10 Dec 12.8 23:01:05 37° W 23:12:50 60° NNW 23:32:41 10° NE visible
11 Dec 14.0 18:56:08 17° E 18:56:08 17° E 19:00:15 10° ENE visible
11 Dec 12.7 21:08:55 76° NE 21:08:55 76° NE 21:29:14 10° ENE visible
11 Dec 12.9 23:21:42 30° W 23:35:17 53° NNW 23:54:14 10° NE visible
12 Dec 13.9 19:16:36 23° ENE 19:16:36 23° ENE 19:23:04 10° ENE visible
12 Dec 12.7 21:29:22 76° N 21:29:22 76° N 21:50:51 10° ENE visible
12 Dec 13.0 23:42:08 23° WNW 23:57:55 49° NNW 00:15:54 10° ENE visible
13 Dec 13.7 19:36:55 29° ENE 19:36:55 29° ENE 19:45:24 10° ENE visible
13 Dec 12.7 21:49:39 68° NNW 21:49:46 68° NNW 22:12:27 10° NE visible
14 Dec 13.1 00:02:25 17° WNW 00:20:42 46° N 00:37:43 10° ENE visible
14 Dec 13.5 19:57:04 35° ENE 19:57:04 35° ENE 20:07:25 10° ENE visible
14 Dec 12.7 22:09:49 58° NW 22:12:06 60° NNW 22:34:07 10° NE visible
